Logan, UT

10:42 AM MDT on September 18, 2019 (GMT -0600)
Logan-Cache

Weather History for KLGU - August, 2019

Change the Weather History Date:

Monday, August 19, 2019

  Actual Average Record
Temperature  
Mean Temperature 70 °F -  
Max Temperature 91 °F 85 °F 99 °F (1961)
Min Temperature 48 °F 52 °F 38 °F (1978)
Cooling Degree Days 4    
Growing Degree Days 20 (Base 50)    
Moisture  
Dew Point 37 °F    
Average Humidity 37    
Maximum Humidity 77    
Minimum Humidity 8    
Precipitation  
Precipitation 0.00 in - - ()
Sea Level Pressure  
Sea Level Pressure 29.87 in    
Wind  
Wind Speed 4 mph (NNW)    
Max Wind Speed 14 mph    
Max Gust Speed -    
Visibility 10 miles    
Events      
Averages and records for this station are not official NWS values.
T = Trace of Precipitation, MM = Missing Value Source: NWS Daily Summary

Daily Weather History Graph

Daily Weather History Graph

Search for Another Location

Airport or City:

Astronomy

Aug. 19, 2019 Rise Set
Actual Time 6:39 AM MDT 8:21 PM MDT
Civil Twilight 6:10 AM MDT 8:51 PM MDT
Nautical Twilight 5:34 AM MDT 9:26 PM MDT
Astronomical Twilight 4:55 AM MDT 10:05 PM MDT
Moon 10:41 PM MDT (8/19) 10:27 AM MDT (8/19)
Length of Visible Light 14h 41m
Length of Day
13h 41m
Waning Gibbous, 85% of the Moon is Illuminated
Aug 19
Waning Gibbous
Aug 23
Last Quarter
Aug 30
New
Sep 5
First Quarter
Sep 13
Full

Hourly Weather History & Observations

Time (MDT) Temp. Dew Point Humidity Pressure Visibility Wind Dir Wind Speed Gust Speed Precip Events Conditions
12:51 AM 57.9 °F 44.1 °F 60% 29.81 in 10.0 mi North 3.5 mph - N/A   Clear
1:51 AM 57.9 °F 44.1 °F 60% 29.81 in 10.0 mi Calm Calm - N/A   Clear
2:51 AM 55.9 °F 42.1 °F 60% 29.81 in 10.0 mi Calm Calm - N/A   Clear
3:51 AM 54.0 °F 43.0 °F 66% 29.83 in 10.0 mi North 5.8 mph - N/A   Clear
4:51 AM 54.0 °F 41.0 °F 62% 29.85 in 10.0 mi East 3.5 mph - N/A   Clear
5:51 AM 48.9 °F 41.0 °F 74% 29.88 in 10.0 mi West 4.6 mph - N/A   Clear
6:51 AM 48.0 °F 41.0 °F 77% 29.89 in 10.0 mi NE 4.6 mph - N/A   Clear
7:51 AM 53.1 °F 43.0 °F 69% 29.90 in 10.0 mi Calm Calm - N/A   Clear
8:51 AM 63.0 °F 43.0 °F 48% 29.92 in 10.0 mi Calm Calm - N/A   Clear
9:51 AM 71.1 °F 41.0 °F 34% 29.89 in 10.0 mi NNW 3.5 mph - N/A   Clear
10:51 AM 79.0 °F 37.9 °F 23% 29.92 in 10.0 mi North 3.5 mph - N/A   Clear
11:51 AM 84.9 °F 37.9 °F 19% 29.89 in 10.0 mi Calm Calm - N/A   Clear
12:51 PM 89.1 °F 33.1 °F 14% 29.88 in 10.0 mi SW 5.8 mph - N/A   Clear
1:51 PM 91.0 °F 28.0 °F 10% 29.88 in 10.0 mi SSW 13.8 mph - N/A   Clear
2:51 PM 90.0 °F 28.9 °F 11% 29.88 in 10.0 mi WSW 9.2 mph - N/A   Clear
3:51 PM 91.0 °F 26.1 °F 10% 29.86 in 10.0 mi SW 9.2 mph - N/A   Clear
4:51 PM 91.9 °F 24.1 °F 9% 29.86 in 10.0 mi SSW 8.1 mph - N/A   Clear
5:51 PM 91.0 °F 23.0 °F 8% 29.86 in 10.0 mi Calm Calm - N/A   Clear
6:51 PM 88.0 °F 28.9 °F 12% 29.86 in 10.0 mi NNW 4.6 mph - N/A   Clear
7:51 PM 82.9 °F 37.0 °F 19% 29.86 in 10.0 mi Calm Calm - N/A   Clear
8:51 PM 77.0 °F 35.1 °F 22% 29.86 in 10.0 mi ESE 4.6 mph - N/A   Clear
10:51 PM 64.9 °F 44.1 °F 47% 29.88 in 10.0 mi NNE 5.8 mph - N/A   Clear
11:51 PM 64.9 °F 43.0 °F 45% 29.87 in 10.0 mi North 4.6 mph - N/A   Clear